Regional Weather Roundup
Issued by NWS

Home | Current Version | Previous Version | Text Only | Print | Product List | Glossary On
Versions: 1 2 3 4 5 6 7 8 9 10 11 12 13 14 15 16 17 18 19 20 21 22 23 24 25 26 27 28 29 30 31 32 33 34 35 36 37 38 39 40 41 42 43 44 45 46 47 48 49 50
000
ASUS43 KTOP 091659
RWRKS

WEATHER ROUNDUP FOR KANSAS
NATIONAL WEATHER SERVICE GOODLAND KS
1200 PM CDT WED JUL 09 2014

NOTE:  "FAIR" INDICATES FEW OR NO CLOUDS BELOW 12,000 FEET WITH NO
SIGNIFICANT WEATHER AND/OR OBSTRUCTIONS TO VISIBILITY.

KSZ001>006-013>018-027>032-041>047-091800-
NORTHWEST KANSAS

CITY           SKY/WX    TMP DP  RH WIND       PRES   REMARKS
GOODLAND       MOSUNNY   80  61  52 S23       30.09F
HAYS           SUNNY     82  57  42 S16G22    30.10S
HILL CITY      SUNNY     85  56  37 S16G23    30.08F
RUSSELL        MOSUNNY   83  56  39 S13       30.08F
$$

KSZ061>065-074>080-084>089-091800-
SOUTHWEST KANSAS

CITY           SKY/WX    TMP DP  RH WIND       PRES   REMARKS
DODGE CITY     SUNNY     80  58  46 SE17      30.12S
ELKHART          N/A     79  59  50 S13         N/A
GARDEN CITY    SUNNY     79  59  50 S17G26    30.11F
GREAT BEND     MOSUNNY   82  59  44 S10       30.08F
LIBERAL        MOSUNNY   81  61  50 S16       30.12F
$$

KSZ066>073-081>083-090>101-091800-
SOUTHEAST KANSAS

CITY           SKY/WX    TMP DP  RH WIND       PRES   REMARKS
CHANUTE        SUNNY     84  54  35 NE3       30.09F
COFFEYVILLE    SUNNY     85  59  41 VRB5      30.08S
HUTCHINSON     SUNNY     85  57  38 S10       30.09F
MEDICINE LODGE   N/A     83  60  45 S9        30.08F
NEWTON         SUNNY     82  55  39 SE9       30.13F
PARSONS        SUNNY     84  60  44 CALM      30.10S
WICHITA INTL   MOSUNNY   83  58  42 S8        30.08F
WICHITA JABRA  SUNNY     83  62  49 VRB5      30.09F
WINFIELD       SUNNY     83  63  50 CALM      30.09F
$$

KSZ007>012-019>026-033>040-048>060-102>105-091800-
NORTHEAST KANSAS

CITY           SKY/WX    TMP DP  RH WIND       PRES   REMARKS
CONCORDIA      SUNNY     83  57  41 S8        30.08F
EMPORIA        SUNNY     82  55  39 CALM      30.10S
LAWRENCE       SUNNY     82  62  50 VRB3      30.09S
MANHATTAN      SUNNY     83  56  39 SE7       30.08F
OLATHE IND     SUNNY     80  60  50 VRB5      30.10S
OLATHE EXE     SUNNY     80  61  52 VRB5      30.08F
SALINA         SUNNY     86  57  37 S9        30.08F
TOPEKA BILLARD SUNNY     83  60  45 CALM      30.09S
TOPEKA FORBES  SUNNY     83  59  44 N3        30.09S
$$


USA.gov is the U.S. government's official web portal to all federal, state and local government web resources and services.